Location: Gad�tanya
(48.0500°N, 20.8500°E)
Time: 11:24:55
(UTC+00:00)

Cosmos 2058 - Pass Details

Date: 05 July 2020
Orbit: 562 x 584 km, 82.5° (Epoch: 14 August)

Event Time Altitude Azimuth Distance (km) Brightness Sun altitude
Exits shadow 21:25:01 27° 204° (SSW) 1,126 4.0 -17.2°
Maximum altitude 21:27:12 68° 281° (W) 625 3.1 -17.3°
Drops below altitude 10° 21:31:21 10° 5° (N) 1,887 6.6 -17.6°
Sets 21:33:33 0° 8° (N) 2,786 7.6 -17.7°
